Eelde, Netherlands

10:50 PM CET on November 17, 2017 (GMT +0100)
Eelde

Weather History for EHGG - May, 2013

Change the Weather History Date:

Friday, May 3, 2013

  Actual Average Record
Temperature  
Mean Temperature 52 °F -  
Max Temperature 66 °F 62 °F 80 °F (2006)
Min Temperature 38 °F 44 °F 30 °F (2011)
Degree Days  
Heating Degree Days 13    
Growing Degree Days 2 (Base 50)    
Moisture  
Dew Point 38 °F    
Average Humidity 57    
Maximum Humidity 81    
Minimum Humidity 30    
Precipitation  
Precipitation 0.00 in 0.08 in - ()
Sea Level Pressure  
Sea Level Pressure 30.07 in    
Wind  
Wind Speed 5 mph ()    
Max Wind Speed 14 mph    
Max Gust Speed -    
Visibility 7.5 miles    
Events      
Averages and records for this station are not official NWS values.
T = Trace of Precipitation, MM = Missing Value Source: Averaged Metar Reports

Daily Weather History Graph

Daily Weather History Graph

Search for Another Location

Airport or City:

Trip Planner

Search our weather history database for the weather conditions in past years. The results will help you decide how hot, cold, wet, or windy it might be!

Date:

Astronomy

May. 03, 2013 Rise Set
Actual Time 5:56 AM CEST 9:06 PM CEST
Civil Twilight 5:15 AM CEST 9:46 PM CEST
Nautical Twilight 4:21 AM CEST 10:41 PM CEST
Astronomical Twilight 3:09 AM CEST 11:55 PM CEST
Moon 3:06 AM CEST (5/3) 1:51 PM CEST (5/3)
Length of Visible Light 16h 31m
Length of Day
15h 09m
Last Quarter, 40% of the Moon is Illuminated
May 3
Last Quarter
May 10
New
May 18
First Quarter
May 25
Full
May 31
Last Quarter

Hourly Weather History & Observations

Time (CEST) Temp. Windchill Dew Point Humidity Pressure Visibility Wind Dir Wind Speed Gust Speed Precip Events Conditions
12:25 AM 44.6 °F 42.2 °F 37.4 °F 76% 30.15 in 6.2 mi NE 4.6 mph - N/A   Unknown
12:55 AM 42.8 °F 39.3 °F 37.4 °F 81% 30.15 in 6.2 mi ENE 5.8 mph - N/A   Unknown
1:25 AM 42.8 °F 38.6 °F 35.6 °F 76% 30.15 in 6.2 mi ENE 6.9 mph - N/A   Unknown
1:55 AM 42.8 °F 38.6 °F 35.6 °F 76% 30.15 in 6.2 mi ENE 6.9 mph - N/A   Unknown
2:00 AM 42 °F - 36 °F 72% 30.16 in 16 mi ENE 4.5 mph - -   Partly Cloudy
2:25 AM 42.8 °F 39.3 °F 35.6 °F 76% 30.12 in 6.2 mi ENE 5.8 mph - N/A   Unknown
2:55 AM 41.0 °F 37.1 °F 33.8 °F 76% 30.12 in 6.2 mi ENE 5.8 mph - N/A   Unknown
3:25 AM 41.0 °F 36.4 °F 33.8 °F 76% 30.12 in 6.2 mi ENE 6.9 mph - N/A   Unknown
3:55 AM 39.2 °F 35.0 °F 33.8 °F 81% 30.12 in 6.2 mi ENE 5.8 mph - N/A   Unknown
4:25 AM 39.2 °F 35.0 °F 33.8 °F 81% 30.12 in 6.2 mi ENE 5.8 mph - N/A   Unknown
4:55 AM 41.0 °F 38.0 °F 33.8 °F 76% 30.09 in 6.2 mi ENE 4.6 mph - N/A   Unknown
5:00 AM 40 °F - 33 °F 69% 30.12 in 16 mi ENE 4.5 mph - -   Scattered Clouds
5:25 AM 39.2 °F 35.0 °F 33.8 °F 81% 30.09 in 6.2 mi NE 5.8 mph - N/A   Unknown
5:55 AM 39.2 °F 34.2 °F 32.0 °F 75% 30.09 in 6.2 mi ENE 6.9 mph - N/A   Unknown
6:25 AM 39.2 °F 34.2 °F 32.0 °F 75% 30.09 in 6.2 mi ENE 6.9 mph - N/A   Unknown
6:55 AM 41.0 °F 37.1 °F 33.8 °F 76% 30.09 in 6.2 mi ENE 5.8 mph - N/A   Unknown
7:25 AM 42.8 °F 39.3 °F 35.6 °F 76% 30.09 in 6.2 mi ENE 5.8 mph - N/A   Unknown
7:55 AM 46.4 °F 43.5 °F 35.6 °F 66% 30.09 in 6.2 mi ENE 5.8 mph - N/A   Unknown
8:00 AM 47 °F - 35 °F 53% 30.12 in 17 mi ENE 6.7 mph - -   Partly Cloudy
8:25 AM 48.2 °F - 35.6 °F 62% 30.09 in 6.2 mi East 6.9 mph - N/A   Unknown
8:55 AM 50.0 °F - 35.6 °F 58% 30.09 in 6.2 mi East 6.9 mph - N/A   Unknown
9:25 AM 51.8 °F - 35.6 °F 54% 30.09 in 6.2 mi East 5.8 mph - N/A   Unknown
9:55 AM 53.6 °F - 35.6 °F 51% 30.09 in 6.2 mi East 5.8 mph - N/A   Unknown
10:25 AM 55.4 °F - 37.4 °F 51% 30.09 in 6.2 mi SE 5.8 mph - N/A   Unknown
10:55 AM 57.2 °F - 37.4 °F 48% 30.09 in 6.2 mi East 3.5 mph - N/A   Unknown
11:00 AM 58 °F - 38 °F 35% 30.10 in 16 mi ESE 4.5 mph - -  
11:25 AM 59.0 °F - 37.4 °F 45% 30.06 in 6.2 mi East 4.6 mph - N/A   Unknown
11:55 AM 60.8 °F - 37.4 °F 42% 30.06 in 6.2 mi ENE 5.8 mph - N/A   Unknown
12:25 PM 60.8 °F - 41.0 °F 48% 30.06 in 6.2 mi East 5.8 mph - N/A   Unknown
12:55 PM 62.6 °F - 41.0 °F 45% 30.06 in 6.2 mi Variable 3.5 mph - N/A   Unknown
1:25 PM 62.6 °F - 41.0 °F 45% 30.06 in 6.2 mi North 3.5 mph - N/A   Unknown
1:55 PM 64.4 °F - 42.8 °F 45% 30.04 in 6.2 mi SE 4.6 mph - N/A   Unknown
2:00 PM 65 °F - 41 °F 30% 30.06 in 14 mi ESE 4.5 mph - -   Partly Cloudy
2:25 PM 64.4 °F - 39.2 °F 40% 30.04 in 6.2 mi Variable 4.6 mph - N/A   Unknown
2:55 PM 64.4 °F - 39.2 °F 40% 30.04 in 6.2 mi Variable 3.5 mph - N/A   Unknown
3:25 PM 66.2 °F - 39.2 °F 37% 30.04 in 6.2 mi North 5.8 mph - N/A   Unknown
3:55 PM 66.2 °F - 41.0 °F 40% 30.04 in 6.2 mi Variable 4.6 mph - N/A   Unknown
4:25 PM 66.2 °F - 39.2 °F 37% 30.04 in 6.2 mi Variable 3.5 mph - N/A   Unknown
4:55 PM 66.2 °F - 41.0 °F 40% 30.01 in 6.2 mi NNW 10.4 mph - N/A   Unknown
5:00 PM 65 °F - 41 °F 30% 30.03 in 13 mi North 11.2 mph - -   Partly Cloudy
5:25 PM 64.4 °F - 41.0 °F 42% 30.01 in 6.2 mi North 13.8 mph - N/A   Unknown
5:55 PM 62.6 °F - 41.0 °F 45% 30.01 in 6.2 mi North 12.7 mph - N/A   Unknown
6:25 PM 62.6 °F - 39.2 °F 42% 30.01 in 6.2 mi North 11.5 mph - N/A   Unknown
6:55 PM 62.6 °F - 39.2 °F 42% 30.01 in 6.2 mi North 10.4 mph - N/A   Unknown
7:25 PM 60.8 °F - 39.2 °F 45% 30.01 in 6.2 mi North 12.7 mph - N/A   Unknown
7:55 PM 59.0 °F - 39.2 °F 48% 30.01 in 6.2 mi North 8.1 mph - N/A   Unknown
8:00 PM 58 °F - 38 °F 35% 30.04 in 16 mi North 8.9 mph - -   Partly Cloudy
8:25 PM 57.2 °F - 39.2 °F 51% 30.01 in 6.2 mi North 5.8 mph - N/A   Unknown
8:55 PM 55.4 °F - 37.4 °F 51% 30.01 in 6.2 mi North 6.9 mph - N/A   Unknown
9:25 PM 53.6 °F - 39.2 °F 58% 30.01 in 6.2 mi NNE 3.5 mph - N/A   Unknown
9:55 PM 51.8 °F - 39.2 °F 62% 30.04 in 6.2 mi NE 2.3 mph - N/A   Unknown
10:25 PM 50.0 °F - 39.2 °F 66% 30.04 in 6.2 mi NNE 1.2 mph - N/A   Unknown
10:55 PM 48.2 °F - 39.2 °F 71% 30.01 in 6.2 mi NE 1.2 mph - N/A   Unknown
11:00 PM 48 °F - 39 °F 63% 30.03 in 12 mi NE 2.2 mph - -   Scattered Clouds
11:25 PM 46.4 °F - 39.2 °F 76% 30.01 in 6.2 mi NNE 1.2 mph - N/A   Unknown
11:55 PM 44.6 °F - 39.2 °F 81% 30.01 in 6.2 mi NNE 1.2 mph - N/A   Unknown